• In Deutschland
  • Länderverzeichnis
  • Für 7 Tage
  • Wassertemperatur
  • Satellitenkarten
  • Wetterkarte
  • Widgets
  • user-avatar
    Anmelden

    Stündliche Wetter Lubango

    Heute, 29 April, Samstag

    Zeit Temperatur Niederschläge Wind Luftdruck Luftfeuchtigkeit
    00:00 +13°C° 0 mm 1 m/S 609 mmHg 73%
    01:00 +13°C° 0 mm 1 m/S 609 mmHg 72%
    02:00 +13°C° 0 mm 1 m/S 609 mmHg 72%
    03:00 +13°C° 0 mm 1 m/S 609 mmHg 71%
    04:00 +13°C° 0 mm 2 m/S 609 mmHg 70%
    05:00 +13°C° 0 mm 2 m/S 609 mmHg 70%
    06:00 +13°C° 0 mm 2 m/S 610 mmHg 70%
    07:00 +14°C° 0 mm 2 m/S 610 mmHg 69%
    08:00 +17°C° 0 mm 2 m/S 611 mmHg 62%
    09:00 +20°C° 0 mm 3 m/S 612 mmHg 54%
    10:00 +24°C° 0 mm 3 m/S 614 mmHg 46%
    11:00 +25°C° 0 mm 3 m/S 614 mmHg 42%
    12:00 +26°C° 0 mm 2 m/S 614 mmHg 38%
    13:00 +28°C° 0 mm 2 m/S 614 mmHg 34%
    14:00 +27°C° 0 mm 2 m/S 613 mmHg 37%
    15:00 +26°C° 0 mm 1 m/S 612 mmHg 39%
    16:00 +26°C° 0 mm 1 m/S 611 mmHg 42%
    17:00 +23°C° 0 mm 1 m/S 611 mmHg 48%
    18:00 +21°C° 0 mm 1 m/S 610 mmHg 54%
    19:00 +18°C° 0 mm 1 m/S 609 mmHg 60%
    20:00 +16°C° 0 mm 1 m/S 609 mmHg 64%
    21:00 +15°C° 0 mm 1 m/S 609 mmHg 68%
    22:00 +14°C° 0 mm 1 m/S 609 mmHg 72%
    23:00 +14°C° 0 mm 1 m/S 609 mmHg 73%

    Morgen, 30 April, Sonntag

    Zeit Temperatur Niederschläge Wind Luftdruck Luftfeuchtigkeit
    00:00 +13°C° 0 mm 1 m/S 609 mmHg 73%
    01:00 +13°C° 0 mm 1 m/S 609 mmHg 73%
    02:00 +13°C° 0 mm 1 m/S 609 mmHg 73%
    03:00 +13°C° 0 mm 1 m/S 608 mmHg 72%
    04:00 +13°C° 0 mm 1 m/S 608 mmHg 72%
    05:00 +13°C° 0 mm 2 m/S 609 mmHg 71%
    06:00 +14°C° 0 mm 2 m/S 609 mmHg 70%
    07:00 +14°C° 0 mm 2 m/S 610 mmHg 69%
    08:00 +17°C° 0 mm 2 m/S 611 mmHg 60%
    09:00 +20°C° 0 mm 3 m/S 612 mmHg 51%
    10:00 +24°C° 0 mm 3 m/S 614 mmHg 42%
    11:00 +25°C° 0 mm 3 m/S 613 mmHg 39%
    12:00 +26°C° 0 mm 2 m/S 613 mmHg 35%
    13:00 +28°C° 0 mm 2 m/S 613 mmHg 32%
    14:00 +27°C° 0 mm 2 m/S 612 mmHg 33%
    15:00 +27°C° 0 mm 2 m/S 612 mmHg 34%
    16:00 +26°C° 0 mm 2 m/S 611 mmHg 34%
    17:00 +24°C° 0 mm 2 m/S 610 mmHg 40%
    18:00 +20°C° 0 mm 2 m/S 610 mmHg 46%
    19:00 +17°C° 0 mm 2 m/S 609 mmHg 51%
    20:00 +16°C° 0 mm 2 m/S 609 mmHg 53%
    21:00 +15°C° 0 mm 2 m/S 609 mmHg 56%
    22:00 +14°C° 0 mm 2 m/S 609 mmHg 58%
    23:00 +14°C° 0 mm 2 m/S 609 mmHg 57%

    übermorgen, 1 Mai, Montag

    Zeit Temperatur Niederschläge Wind Luftdruck Luftfeuchtigkeit
    00:00 +14°C° 0 mm 2 m/S 609 mmHg 57%
    01:00 +13°C° 0 mm 2 m/S 608 mmHg 57%
    02:00 +13°C° 0 mm 2 m/S 608 mmHg 59%
    03:00 +13°C° 0 mm 2 m/S 608 mmHg 61%
    04:00 +12°C° 0 mm 2 m/S 608 mmHg 63%
    05:00 +12°C° 0 mm 2 m/S 608 mmHg 63%
    06:00 +13°C° 0 mm 2 m/S 608 mmHg 63%
    07:00 +13°C° 0 mm 2 m/S 609 mmHg 64%
    08:00 +16°C° 0 mm 2 m/S 610 mmHg 55%
    09:00 +19°C° 0 mm 3 m/S 612 mmHg 47%
    10:00 +22°C° 0 mm 3 m/S 613 mmHg 38%
    11:00 +24°C° 0 mm 3 m/S 613 mmHg 34%
    12:00 +26°C° 0 mm 2 m/S 612 mmHg 31%
    13:00 +27°C° 0 mm 2 m/S 612 mmHg 27%
    14:00 +27°C° 0 mm 2 m/S 612 mmHg 27%
    15:00 +26°C° 0 mm 2 m/S 611 mmHg 28%
    16:00 +26°C° 0 mm 1 m/S 611 mmHg 28%
    17:00 +23°C° 0 mm 1 m/S 610 mmHg 37%
    18:00 +19°C° 0 mm 1 m/S 609 mmHg 46%
    19:00 +15°C° 0 mm 1 m/S 608 mmHg 54%
    20:00 +14°C° 0 mm 1 m/S 608 mmHg 54%
    21:00 +13°C° 0 mm 1 m/S 608 mmHg 55%
    22:00 +13°C° 0 mm 2 m/S 608 mmHg 55%
    23:00 +12°C° 0 mm 2 m/S 608 mmHg 54%

    2 Mai, Dienstag

    Zeit Temperatur Niederschläge Wind Luftdruck Luftfeuchtigkeit
    00:00 +12°C° 0 mm 2 m/S 608 mmHg 53%
    01:00 +12°C° 0 mm 2 m/S 608 mmHg 52%
    02:00 +12°C° 0 mm 2 m/S 607 mmHg 52%
    03:00 +10°C° 0 mm 2 m/S 607 mmHg 53%
    04:00 +10°C° 0 mm 2 m/S 607 mmHg 53%
    05:00 +10°C° 0 mm 2 m/S 608 mmHg 55%
    06:00 +12°C° 0 mm 2 m/S 608 mmHg 56%
    07:00 +12°C° 0 mm 2 m/S 608 mmHg 57%
    08:00 +14°C° 0 mm 3 m/S 610 mmHg 50%
    09:00 +18°C° 0 mm 3 m/S 611 mmHg 43%
    10:00 +21°C° 0 mm 3 m/S 612 mmHg 36%
    11:00 +24°C° 0 mm 3 m/S 612 mmHg 32%
    12:00 +25°C° 0 mm 3 m/S 612 mmHg 29%
    13:00 +26°C° 0 mm 2 m/S 611 mmHg 26%
    14:00 +26°C° 0 mm 2 m/S 611 mmHg 27%
    15:00 +26°C° 0 mm 1 m/S 611 mmHg 27%
    16:00 +26°C° 0 mm 1 m/S 610 mmHg 27%
    17:00 +22°C° 0 mm 1 m/S 609 mmHg 37%
    18:00 +18°C° 0 mm 1 m/S 608 mmHg 47%
    19:00 +13°C° 0 mm 1 m/S 607 mmHg 56%
    20:00 +13°C° 0 mm 1 m/S 607 mmHg 56%
    21:00 +13°C° 0 mm 1 m/S 607 mmHg 55%
    22:00 +12°C° 0 mm 1 m/S 608 mmHg 54%
    23:00 +12°C° 0 mm 2 m/S 607 mmHg 55%

    3 Mai, Mittwoch

    Zeit Temperatur Niederschläge Wind Luftdruck Luftfeuchtigkeit
    00:00 +12°C° 0 mm 2 m/S 607 mmHg 56%
    01:00 +12°C° 0 mm 2 m/S 607 mmHg 56%
    02:00 +12°C° 0 mm 2 m/S 607 mmHg 57%
    03:00 +12°C° 0 mm 2 m/S 607 mmHg 58%
    04:00 +10°C° 0 mm 2 m/S 607 mmHg 59%
    05:00 +12°C° 0 mm 2 m/S 607 mmHg 60%
    06:00 +12°C° 0 mm 2 m/S 608 mmHg 60%
    07:00 +11°C° 0 mm 3 m/S 608 mmHg 61%
    08:00 +14°C° 0 mm 3 m/S 610 mmHg 54%
    09:00 +18°C° 0 mm 3 m/S 611 mmHg 46%
    10:00 +21°C° 0 mm 4 m/S 612 mmHg 39%
    11:00 +22°C° 0 mm 3 m/S 612 mmHg 36%
    12:00 +25°C° 0 mm 3 m/S 612 mmHg 32%
    13:00 +26°C° 0 mm 2 m/S 611 mmHg 29%
    14:00 +26°C° 0 mm 1 m/S 611 mmHg 30%
    15:00 +26°C° 0 mm 1 m/S 611 mmHg 32%
    16:00 +24°C° 0 mm 0 m/S 610 mmHg 33%
    17:00 +20°C° 0 mm 0 m/S 609 mmHg 44%
    18:00 +16°C° 0 mm 0 m/S 608 mmHg 55%
    19:00 +13°C° 0 mm 0 m/S 607 mmHg 66%
    20:00 +12°C° 0 mm 0 m/S 607 mmHg 67%
    21:00 +12°C° 0 mm 1 m/S 607 mmHg 67%
    22:00 +12°C° 0 mm 1 m/S 607 mmHg 68%
    23:00 +12°C° 0 mm 1 m/S 607 mmHg 65%

    4 Mai, Donnerstag

    Zeit Temperatur Niederschläge Wind Luftdruck Luftfeuchtigkeit
    00:00 +12°C° 0 mm 1 m/S 607 mmHg 63%
    01:00 +12°C° 0 mm 1 m/S 607 mmHg 60%
    02:00 +12°C° 0 mm 1 m/S 607 mmHg 61%
    03:00 +12°C° 0 mm 2 m/S 607 mmHg 61%
    04:00 +10°C° 0 mm 2 m/S 607 mmHg 62%
    05:00 +12°C° 0 mm 2 m/S 607 mmHg 63%
    06:00 +12°C° 0 mm 2 m/S 608 mmHg 64%
    07:00 +12°C° 0 mm 2 m/S 608 mmHg 65%
    08:00 +14°C° 0 mm 3 m/S 610 mmHg 56%
    09:00 +19°C° 0 mm 3 m/S 611 mmHg 47%
    10:00 +22°C° 0 mm 3 m/S 612 mmHg 39%
    11:00 +24°C° 0 mm 3 m/S 612 mmHg 35%
    12:00 +26°C° 0 mm 2 m/S 612 mmHg 32%
    13:00 +27°C° 0 mm 2 m/S 612 mmHg 28%
    14:00 +27°C° 0 mm 1 m/S 611 mmHg 30%
    15:00 +26°C° 0 mm 1 m/S 611 mmHg 32%
    16:00 +24°C° 0 mm 0 m/S 610 mmHg 34%
    17:00 +22°C° 0 mm 1 m/S 609 mmHg 43%
    18:00 +19°C° 0 mm 1 m/S 608 mmHg 52%
    19:00 +14°C° 0 mm 1 m/S 607 mmHg 62%
    20:00 +14°C° 0 mm 1 m/S 607 mmHg 62%
    21:00 +13°C° 0 mm 1 m/S 607 mmHg 63%
    22:00 +13°C° 0 mm 1 m/S 607 mmHg 63%
    23:00 +12°C° 0 mm 1 m/S 607 mmHg 61%
    Mehr zeigen